OPS 4682 DEB, 38415

Orbit data source: Space-Track

OPS 4682 DEB, 38415 is space debris in LEO originally from a launch on Sat, 03 Apr 1965 UTC launched from the Air Force Western Test Range (AFWTR). Debris objects in space refer to the collection of defunct objects orbiting the Earth. Examples of debris include non-operational satellites, rocket bodies, and fragments generated from explosions, collisions, or faulty payload assembly.

Loading next visibility...
Identifier
38415, 1965-027DU
Orbit
LEO
Country
Flag of USUS
Related business
Manufacturer
Unknown
Mission
Spacecraft
Bus & Motor
Unknown
Mass
Unknown
Launch date (UTC)
1965-04-03 (61 years ago)
Launch vehicle
Unknown
Launch site
Air Force Western Test Range (AFWTR)
Object type
Payload
Rocket body
Debris
Shape & HBR
Unknown shape, 0.1 m
Radar Cross Section
Small (<0.1 m²)

Expand to show TLE details & history
Last TLE update: 1 week ago

TLE from 1 week ago
0 OPS 4682 DEB
1 38415U 65027DU  26061.31778345  .00001103  00000-0  35127-2 0  9999
2 38415  90.2516  12.0466 0032276  38.4379 321.9035 13.02341188601022
Epoch: 2026-03-02T07:37Z
TLE epoch observation values (Epoch: 2026-03-02T07:37:36.490Z)
Latitude
-0.00001°
Longitude
97.53164°
Altitude
1,236.458 km
Speed
7.246 km/s
True Right ascension
00h 48m 11s
True Declination
0° 00' 00"
Sunlit
Object was in daylight at epoch
Visualization orbit readout
Latitude
Unknown
Longitude
Unknown
Altitude
Unknown
Speed
Unknown
Apparent Right ascension
Unknown
Apparent Declination
Unknown
Sunlit
N/A
Visualization observer readout
Local Sidereal Time
18:36:21
Azimuth
Unknown
Elevation
Unknown
Doppler factor
Unknown
Orbital elements
Apogee altitude
1,274.672 km
Perigee altitude
1,225.43 km
Semi-major axis
7,628.188 km
Eccentricity
0.00323
Inclination
90.2516°
RAAN
12.0466°
Arg. of periapsis
38.4379°
True anomaly
321.67458°
Mean anomaly
321.9035°
Eccentric anomaly
321.78911°
Mean motion
3.2577 °/min
Orbital period
110.51 mins
BSTAR
0.0035127
Loading maneuver chart data...
Computing Atmospheric mass density...
Loading historical data...
Loading historical data...
Loading historical data...
Loading historical data...
Loading historical data...
Loading historical data...
Loading historical data...

Documentation

Showing up to 5 results
|